Regional Weather Roundup
Issued by NWS

Home | Current Version | Previous Version | Graphics & Text | Print | Product List | Glossary On
Versions: 1 2 3 4 5 6 7 8 9 10 11 12 13 14 15 16 17 18 19 20 21 22 23 24 25 26 27 28 29 30 31 32 33 34 35 36 37 38 39 40 41 42 43 44 45 46 47 48 49 50
952
ASUS43 KMPX 032110
RWRMN
WEATHER ROUNDUP FOR MINNESOTA
NATIONAL WEATHER SERVICE TWIN CITIES/CHANHASSEN MN
400 PM CDT TUE MAY 03 2016


NOTE: "FAIR" INDICATES FEW OR NO CLOUDS BELOW 12,000 FEET WITH NO
SIGNIFICANT WEATHER AND/OR OBSTRUCTIONS TO VISIBILITY. N/A MEANS
CURRENT SKY AND/OR WEATHER CONDITIONS ARE NOT AVAILABLE.

MNZ060>063-068>070-032200-
   Twin Cities Metro

CITY           SKY/WX    TMP DP  RH WIND       PRES   REMARKS
TWIN CITIES    PTSUNNY   71  39  31 W18G25    29.71F
ST PAUL        PTSUNNY   69  39  33 W21G29    29.72F
CRYSTAL        PTSUNNY   72  40  31 W18G25    29.71F
BLAINE         PTSUNNY   72  39  30 MISG        N/A
EDEN PRAIRIE   CLOUDY    70  38  31 W16G23    29.72F
SOUTH ST PAUL  MOSUNNY   70  37  29 W17G25    29.71F
LAKE ELMO      FAIR      68  41  37 W21G28    29.72F
$$
MNZ001>005-007-008-013>017-022>024-027-028-032200-
   Northwest Minnesota

CITY           SKY/WX    TMP DP  RH WIND       PRES   REMARKS
BEMIDJI        SUNNY     63  27  25 N18G30    29.80R
HALLOCK        SUNNY     66  21  18 N25       29.90S
ROSEAU         SUNNY     64  30  27 N16G24    29.87R
WARROAD        MOSUNNY   63  34  34 N14G26    29.86R
THIEF RVR FALL SUNNY     63  25  23 NW21G28   29.88R
CROOKSTON      SUNNY     66  28  24 N24G32    29.88R
FOSSTON        SUNNY     64  27  24 NW25      29.85S
DETROIT LAKES  SUNNY     64  27  24 N23G33    29.83R
MOORHEAD       SUNNY     70  27  19 N28G36    29.85S
PARK RAPIDS    SUNNY     67  21  17 N22G31    29.77R
MAHNOMEN       FAIR      65  28  25 N24G32    29.84R
$$
MNZ006-009>011-018-025>026-032200-
   North Central Minnesota

CITY           SKY/WX    TMP DP  RH WIND       PRES   REMARKS
BAUDETTE       SUNNY     62  31  31 N21G30    29.84R
FLAG ISLAND    MOSUNNY   55  34  44 N16       29.86R
INTL FALLS     PTSUNNY   62  30  29 N18G28    29.78R
WASKISH        SUNNY     63  34  34 NW13G20   29.82R
BIG FORK       MOSUNNY   64  28  25 N9G20     29.76R
LONGVILLE      SUNNY     64  25  22 NW15G25   29.76R
GRAND RAPIDS   SUNNY     64  27  24 N23G31    29.75R
CRANE LAKE     MOSUNNY   61  28  29 NW14G24   29.75R
ORR            MOSUNNY   64  25  22 NW14G23   29.72R
COOK           MOSUNNY   63  30  29 NW12G22   29.73R
WALKER         FAIR      64  26  23 N18G26    29.77S
$$
MNZ012-019>021-037-032200-
   Northeast Minnesota

CITY           SKY/WX    TMP DP  RH WIND       PRES   REMARKS
DULUTH         MOSUNNY   67  30  25 N20G29    29.66F
ELY            MOSUNNY   63  27  25 NW10G28   29.69R
HIBBING        MOSUNNY   63  28  26 MISG      29.70R
EVELETH        MOSUNNY   64  27  24 NW21      29.71R
DULUTH HARBOR  MOSUNNY   66  27  22 NW15G22   29.66S
TWO HARBORS      N/A     70  39  32 N10G21    29.64S
SILVER BAY     PTSUNNY   64  30  27 N16G23    29.64S
GRAND MARAIS     N/A     63  37  38 N8G17     29.63F
G MARAIS ARPRT MOSUNNY   59  34  38 N16G24    29.66S
$$
MNZ029>031-032-039>041-046>048-054>057-064-032200-
   West Central Minnesota

CITY           SKY/WX    TMP DP  RH WIND       PRES   REMARKS
FERGUS FALLS   SUNNY     70  28  21 N26G40    29.78S
WHEATON        SUNNY     73  32  21 NW24G35   29.83R
MORRIS         SUNNY     73  27  17 NW29G37   29.77R
ALEXANDRIA     SUNNY     71  28  20 N22G38    29.77R
ELBOW LAKE     FAIR      67  30  24 N24G35    29.80R
WADENA         SUNNY     70  30  23 NW17G29   29.76S
GLENWOOD       SUNNY     73  27  17 NW18G35   29.76S
APPLETON       MOSUNNY   75  32  20 NW26G38   29.76F
BENSON         MOSUNNY   75  27  16 N25G35    29.75S
ORTONVILLE     SUNNY     73  34  23 N22G40    29.78S
MADISON        MOSUNNY   73  37  27 NW18G28   29.77F
WILLMAR        FAIR      73  39  29 W21G30    29.75F
$$
MNZ033>034-036-042>043-049>051-058-059-032200-
   Central Minnesota

CITY           SKY/WX    TMP DP  RH WIND       PRES   REMARKS
ST CLOUD       PTSUNNY   70  39  32 NW18G26   29.70F
SAUK CENTRE    FAIR      71  33  24 NW21G31   29.74S
PAYNESVILLE    PTSUNNY   72  38  28 NW15G28   29.73F
AITKIN         MOSUNNY   70  18  13 NW17G25   29.70S
PINE RIVER     SUNNY     66  34  30 NW23G30   29.78R
BRAINERD       SUNNY     68  29  23 N21G28    29.72R
STAPLES        SUNNY     70  21  16 NW22G33   29.74S
LONG PRAIRIE   FAIR      70  28  21 NW18G31   29.74S
LITTLE FALLS   MOSUNNY   72  27  18 NW14G22   29.71S
LITCHFIELD     MOSUNNY   72  39  30 NW14G24   29.74F
BUFFALO        CLOUDY    69  39  33 W14G20    29.73F
MAPLE LAKE     CLOUDY    69  42  37 W14G20    29.73F
HUTCHINSON     PTSUNNY   73  42  33 W18       29.75F
$$
MNZ037-044-045-052-053-032200-
   East Central Minnesota

CITY           SKY/WX    TMP DP  RH WIND       PRES   REMARKS
PRINCETON      MOSUNNY   72  41  33 W15G24    29.70F
MORA           PTSUNNY   66  37  34 N10G20    29.70F
CAMBRIDGE      SUNNY     72  48  43 W14G24    29.67F
RUSH CITY      PTSUNNY   69  41  35 W10G21    29.69F
MOOSE LAKE     PTSUNNY   70  32  24 N18G25    29.66F
HINCKLEY       CLOUDY    68  39  34 NW15G26   29.67F
CLOQUET        MOSUNNY   66  21  18 NW20      29.67F
MCGREGOR       MOSUNNY   68  30  24 N20G29    29.70F
$$
MNZ071>073-080-081-089-090-097-098-032200-
   Southwest Minnesota

CITY           SKY/WX    TMP DP  RH WIND       PRES   REMARKS
MONTEVIDEO     MOSUNNY   75  41  29 NW13G22   29.78F
GRANITE FALLS  MOSUNNY   75  41  29 W18G31    29.79F
CANBY          CLOUDY    73  44  36 NW17G28   29.80F
MARSHALL       CLOUDY    71  40  32 NW21      29.80F
REDWOOD FALLS  SUNNY     73  37  27 NW15G28   29.76F
OLIVIA         PTSUNNY   70  39  32 NW14G25   29.75F
PIPESTONE      MOSUNNY   70  36  28 NW15      29.85F
WINDOM         MOSUNNY   72  37  28 W23G29    29.81F
WORTHINGTON    MOSUNNY   67  43  41 W26G32    29.85F
JACKSON        MOSUNNY   66  41  39 W20G29    29.84F
TRACY          PTSUNNY   72  40  30 NW22G29   29.82F
SLAYTON        PTSUNNY   69  38  31 W23G30    29.84F
$$
MNZ065>067-074>077-082>085-091>093-032200-
   South Central Minnesota

CITY           SKY/WX    TMP DP  RH WIND       PRES   REMARKS
MANKATO        MOSUNNY   70  39  32 W24G31    29.76F
NEW ULM        SUNNY     72  41  33 NW17G28   29.77F
ST JAMES       MOSUNNY   66  37  34 W21G29    29.80F
FAIRMONT       CLOUDY    68  43  40 W23G31    29.81F
GLENCOE        CLOUDY    71  42  35 W13G24    29.74F
FARIBAULT      MOSUNNY   70  39  32 W16G24    29.76F
OWATONNA       MOSUNNY   70  36  28 W17G26    29.77F
WASECA         MOSUNNY   72  41  33 W25G33    29.79F
ALBERT LEA     MOSUNNY   66  39  37 W13G22    29.80F
$$
MNZ078>079-086>088-094>096-032200-
   Southeast Minnesota

CITY           SKY/WX    TMP DP  RH WIND       PRES   REMARKS
ROCHESTER      MOSUNNY   67  39  35 W22G31    29.77F
RED WING       MOSUNNY   72  32  23 W15G28    29.71F
STANTON        PTSUNNY   72  37  27 W20G26    29.73F
DODGE CENTER   MOSUNNY   68  36  30 W18G30    29.77F
WINONA         CLOUDY    70  36  28 W10G24    29.74F
AUSTIN         MOSUNNY   66  37  34 W10G18    29.79F
PRESTON        MOSUNNY   66  36  32 W17G24    29.79F
$$
ABBREVIATIONS USED IN REMARKS
   TC - TEMPERATURES IN CELSIUS
  WCI - WIND CHILL INDEX
   HX - HEAT INDEX
  VSB - VISIBILITY
$$




USA.gov is the U.S. government's official web portal to all federal, state and local government web resources and services.